Date String (YYYY-MM-DD hh:mm:ss) UTC,Instrument flags,Ambient pressure (hPa),Sample flow (lpm),Bypass flow (lpm),Sample temperature (°C),Ambient temperature (°C),ASC tube jacket temperature (°C),LED temperature (°C),Box temperature (°C),Sample RH (%),Span deviation,Mass concentration (μg/m³),Mass concentration (μg/m³),Mass concentration (μg/m³)
DateTimeUTC,F1_M11,P_M11,Q1_M11,Q2_M11,T1_M11,T2_M11,T3_M11,T4_M11,T5_M11,U1_M11,ZSPAN_M11,X0_M11,X2_M11,X1_M11
2022-07-02 13:00:00,,0829.2,5.01,0.00,30.4,29.4,00.0,39.2,32.3,27.8,0000.0,0009.74,0004.45,0003.59
2022-07-02 13:01:00,,0829.2,5.01,0.00,30.4,29.4,00.0,39.2,32.3,27.9,0000.0,0009.71,0004.44,0003.58
2022-07-02 13:02:00,,0829.2,5.01,0.00,30.4,29.4,00.0,39.2,32.3,27.8,0000.0,0009.70,0004.41,0003.55
2022-07-02 13:03:00,,0829.3,4.99,0.00,30.5,29.4,00.0,39.2,32.3,27.8,0000.0,0010.07,0004.39,0003.52
2022-07-02 13:04:00,,0829.2,4.99,0.00,30.5,29.4,00.0,39.2,32.3,27.6,0000.0,0010.41,0004.37,0003.50
2022-07-02 13:05:00,,0829.2,5.00,0.00,30.5,29.5,00.0,39.2,32.3,27.5,0000.0,0010.57,0004.40,0003.49
2022-07-02 13:06:00,,0829.3,5.01,0.00,30.5,29.5,00.0,39.2,32.3,27.6,0000.0,0009.93,0004.39,0003.49
2022-07-02 13:07:00,,0829.2,4.99,0.00,30.5,29.5,00.0,39.3,32.4,27.8,0000.0,0009.84,0004.37,0003.47
2022-07-02 13:08:00,,0829.2,4.99,0.00,30.5,29.5,00.0,39.3,32.4,27.7,0000.0,0009.75,0004.40,0003.47
2022-07-02 13:09:00,,0829.3,5.00,0.00,30.5,29.5,00.0,39.3,32.4,27.4,0000.0,0009.21,0004.37,0003.46
2022-07-02 13:10:00,,0829.2,5.00,0.00,30.5,29.5,00.0,39.3,32.4,27.7,0000.0,0009.29,0004.36,0003.46
2022-07-02 13:11:00,,0829.2,5.00,0.00,30.5,29.5,00.0,39.3,32.4,27.6,0000.0,0009.54,0004.40,0003.45
2022-07-02 13:12:00,,0829.2,5.01,0.00,30.5,29.5,00.0,39.3,32.4,27.8,0000.0,0009.58,0004.39,0003.46
2022-07-02 13:13:00,,0829.2,4.99,0.00,30.6,29.5,00.0,39.3,32.4,27.6,0000.0,0009.60,0004.39,0003.46
2022-07-02 13:14:00,,0829.2,5.00,0.00,30.6,29.5,00.0,39.3,32.4,27.4,0000.0,0009.55,0004.42,0003.47
2022-07-02 13:15:00,,0829.3,5.00,0.00,30.6,29.6,00.0,39.3,32.4,27.4,0000.0,0009.36,0004.42,0003.47
2022-07-02 13:16:00,,0829.2,5.00,0.00,30.6,29.6,00.0,39.4,32.4,27.5,0000.0,0009.08,0004.39,0003.47
2022-07-02 13:17:00,,0829.2,5.00,0.00,30.6,29.6,00.0,39.4,32.5,27.6,0000.0,0009.07,0004.40,0003.46
2022-07-02 13:18:00,,0829.3,5.01,0.00,30.6,29.6,00.0,39.4,32.5,27.5,0000.0,0009.10,0004.42,0003.47
2022-07-02 13:19:00,,0829.2,5.01,0.00,30.6,29.6,00.0,39.4,32.5,27.5,0000.0,0009.19,0004.40,0003.46
2022-07-02 13:20:00,,0829.2,5.00,0.00,30.6,29.6,00.0,39.4,32.5,27.6,0000.0,0009.45,0004.41,0003.46
2022-07-02 13:21:00,,0829.3,5.00,0.00,30.7,29.6,00.0,39.4,32.5,27.3,0000.0,0009.35,0004.41,0003.48
2022-07-02 13:22:00,,0829.2,4.99,0.00,30.7,29.7,00.0,39.4,32.5,27.5,0000.0,0009.40,0004.40,0003.48
2022-07-02 13:23:00,,0829.3,4.99,0.00,30.7,29.7,00.0,39.4,32.5,27.7,0000.0,0010.03,0004.46,0003.49
2022-07-02 13:24:00,,0829.3,5.00,0.00,30.7,29.4,00.0,39.4,32.5,27.7,0000.0,0010.09,0004.49,0003.50
2022-07-02 13:25:00,,0829.2,5.00,0.00,30.7,28.6,00.0,39.3,32.4,27.5,0000.0,0009.76,0004.48,0003.50
2022-07-02 13:26:00,,0829.2,5.00,0.00,30.6,28.1,00.0,39.3,32.2,27.6,0000.0,0009.84,0004.48,0003.50
2022-07-02 13:27:00,,0829.2,5.01,0.00,30.5,28.0,00.0,39.3,32.1,27.5,0000.0,0010.56,0004.46,0003.49
2022-07-02 13:28:00,,0829.2,4.99,0.00,30.4,28.0,00.0,39.3,32.0,27.6,0000.0,0010.82,0004.43,0003.50
2022-07-02 13:29:00,,0829.2,5.00,0.00,30.4,28.1,00.0,39.2,32.0,27.9,0000.0,0010.74,0004.40,0003.49
2022-07-02 13:30:00,,0829.2,5.00,0.00,30.3,28.3,00.0,39.2,32.0,27.9,0000.0,0010.50,0004.38,0003.49
2022-07-02 13:31:00,,0829.2,4.99,0.00,30.3,28.4,00.0,39.2,32.0,27.8,0000.0,0010.13,0004.37,0003.50
2022-07-02 13:32:00,,0829.2,5.00,0.00,30.3,28.5,00.0,39.2,32.0,27.8,0000.0,0010.27,0004.40,0003.50
2022-07-02 13:33:00,,0829.2,5.00,0.00,30.3,28.6,00.0,39.2,32.0,28.0,0000.0,0010.12,0004.38,0003.49
2022-07-02 13:34:00,,0829.1,5.00,0.00,30.3,28.7,00.0,39.1,32.0,28.1,0000.0,0009.57,0004.34,0003.49
2022-07-02 13:35:00,,0829.1,5.00,0.00,30.3,28.8,00.0,39.1,32.0,28.2,0000.0,0009.59,0004.34,0003.49
2022-07-02 13:36:00,,0829.1,5.01,0.00,30.3,28.9,00.0,39.1,32.1,28.3,0000.0,0010.25,0004.32,0003.51
2022-07-02 13:37:00,,0829.0,5.00,0.00,30.3,28.9,00.0,39.1,32.1,28.4,0000.0,0010.59,0004.31,0003.51
2022-07-02 13:38:00,,0829.1,5.00,0.00,30.3,29.0,00.0,39.1,32.1,28.1,0000.0,0010.11,0004.33,0003.52
2022-07-02 13:39:00,,0829.1,4.99,0.00,30.3,29.0,00.0,39.1,32.1,28.1,0000.0,0009.77,0004.35,0003.52
2022-07-02 13:40:00,,0829.2,4.99,0.00,30.3,29.1,00.0,39.1,32.2,28.1,0000.0,0009.83,0004.38,0003.53
2022-07-02 13:41:00,,0829.2,5.01,0.00,30.3,29.1,00.0,39.1,32.2,28.0,0000.0,0009.82,0004.37,0003.54
2022-07-02 13:42:00,,0829.2,5.01,0.00,30.3,29.2,00.0,39.1,32.2,27.9,0000.0,0009.81,0004.35,0003.53
2022-07-02 13:43:00,,0829.3,4.99,0.00,30.4,29.2,00.0,39.1,32.2,28.0,0000.0,0009.67,0004.30,0003.52
2022-07-02 13:44:00,,0829.2,5.00,0.00,30.4,29.3,00.0,39.1,32.2,28.2,0000.0,0009.47,0004.27,0003.52
2022-07-02 13:45:00,,0829.3,5.00,0.00,30.4,29.3,00.0,39.2,32.2,28.5,0000.0,0009.38,0004.24,0003.52
2022-07-02 13:46:00,,0829.3,5.00,0.00,30.4,29.3,00.0,39.2,32.3,28.1,0000.0,0009.31,0004.23,0003.51
2022-07-02 13:47:00,,0829.3,5.00,0.00,30.4,29.4,00.0,39.2,32.3,28.0,0000.0,0008.54,0004.23,0003.50
2022-07-02 13:48:00,,0829.3,5.01,0.00,30.4,29.4,00.0,39.2,32.3,27.8,0000.0,0008.11,0004.26,0003.51
2022-07-02 13:49:00,,0829.2,5.00,0.00,30.4,29.4,00.0,39.2,32.3,27.8,0000.0,0007.93,0004.26,0003.51
2022-07-02 13:50:00,,0829.3,4.99,0.00,30.5,29.2,00.0,39.2,32.3,27.8,0000.0,0007.99,0004.27,0003.50
2022-07-02 13:51:00,,0829.3,5.01,0.00,30.4,28.4,00.0,39.1,32.2,27.8,0000.0,0008.09,0004.31,0003.51
2022-07-02 13:52:00,,0829.2,4.99,0.00,30.4,27.9,00.0,39.1,32.1,28.4,0000.0,0008.32,0004.36,0003.52
2022-07-02 13:53:00,,0829.3,5.01,0.00,30.3,27.8,00.0,39.1,31.9,28.8,0000.0,0008.38,0004.39,0003.53
2022-07-02 13:54:00,,0829.2,5.00,0.00,30.2,27.8,00.0,39.0,31.8,29.1,0000.0,0008.40,0004.41,0003.53
2022-07-02 13:55:00,,0829.2,5.00,0.00,30.1,27.9,00.0,39.0,31.8,29.0,0000.0,0008.54,0004.44,0003.54
2022-07-02 13:56:00,,0829.2,5.00,0.00,30.1,28.1,00.0,39.0,31.8,29.2,0000.0,0008.65,0004.48,0003.54
2022-07-02 13:57:00,,0829.3,5.00,0.00,30.1,28.2,00.0,39.0,31.9,29.3,0000.0,0008.85,0004.55,0003.56
2022-07-02 13:58:00,,0829.2,5.01,0.00,30.1,28.3,00.0,39.0,31.9,29.1,0000.0,0009.28,0004.57,0003.56
2022-07-02 13:59:00,,0829.2,4.99,0.00,30.1,28.4,00.0,39.0,31.9,29.5,0000.0,0009.40,0004.60,0003.57
